Home > Weather > Buchs > Past weeks

Flag for Switzerland Weather for the Past 2 Weeks in Buchs, St. Gallen, Switzerland

Now
69 °F

Mild.


Feels Like: 69 °F
Forecast: 48 / 77 °F
Wind: 9 mph from South

Location: Vaduz

Current Time: May 6, 2016 at 8:52:05 PM

Latest Report: May 6, 2016 at 8:00 PM


Visibility: N/A

Pressure: 29.85 "Hg

Humidity: 25%

Dew Point: 31 °F

Location of BuchsLocation

Historic Weather in Buchs — Graph

°F

Buchs Temperature Yesterday

Maximum temperature yesterday: 69 °F (at 5:00 PM)
Minimum temperature yesterday: 36 °F (at 8:00 AM)
Average temperature yesterday: 52 °F

High & Low Weather Summary for the Past Weeks

 TemperatureHumidityPressure
High75 °F (May 6, 3:00 PM)98% (Apr 25, 2:00 AM)30.37 "Hg (Apr 25, 2:00 AM)
Low32 °F (Apr 25, 2:00 AM)21% (May 6, 4:00 PM)29.64 "Hg (Apr 26, 3:00 PM)
Average49 °F67%30.02 "Hg
* Reported Apr 21 7:00 PM — May 6 7:00 PM, Buchs, Weather by CustomWeather, © 2016

Note: Actual official high and low records may vary slightly from our data, if they occured in-between our weather recording intervals... More about our weather records

Advertising

Buchs Weather History for the Previous 24 Hours

Scroll right to see more
 ConditionsComfort  
Time TempWeatherWind HumidityBarometerVisibility
7:00 PM
Fri, May 6
72 °FMild.10 mph24%29.84 "HgN/A
6:00 PM74 °FMild.12 mph24%29.83 "HgN/A
5:00 PM74 °FPassing clouds.2 mph25%29.84 "Hg9 mi
4:00 PM74 °FMild.5 mph21%29.85 "HgN/A
3:00 PM75 °FMild.8 mph26%29.86 "HgN/A
2:00 PM73 °FPassing clouds.5 mph26%29.90 "Hg9 mi
1:00 PM72 °FMild.6 mph25%29.92 "HgN/A
12:00 PM71 °FMild.8 mph27%29.95 "HgN/A
11:00 AM67 °FSunny.2 mph26%29.98 "Hg9 mi
10:00 AM65 °FMild.5 mph34%30.00 "HgN/A
9:00 AM61 °FRefreshingly cool.6 mph36%30.03 "HgN/A
8:00 AM54 °FSunny.6 mph47%30.06 "Hg11 mi
7:00 AM55 °FRefreshingly cool.6 mph42%30.06 "HgN/A
6:00 AM55 °FCool.7 mph42%30.05 "HgN/A
5:00 AM54 °FFog.7 mph46%30.05 "Hg4 mi
4:00 AM56 °FRefreshingly cool.6 mph42%30.04 "HgN/A
3:00 AM58 °FRefreshingly cool.7 mph37%30.05 "HgN/A
2:00 AM58 °FFog.6 mph38%30.04 "Hg4 mi
1:00 AM58 °FRefreshingly cool.3 mph38%30.03 "HgN/A
12:00 AM54 °FCool.3 mph53%30.04 "HgN/A
11:00 PM
Thu, May 5
50 °FClear.5 mph73%30.06 "Hg6 mi
10:00 PM54 °FCool.2 mph63%30.06 "HgN/A
9:00 PM56 °FCool.1 mph61%30.05 "HgN/A
8:00 PM60 °FSunny.2 mph47%30.03 "Hg7 mi
Weather by CustomWeather, © 2016

See weather overviewHow to use our weather pages